KTHV

Details ICAO KTHV
Name YORK
Region United States
Timezone America/New_York (UTC-4.0)
Plans Departing 13
Arriving 10
Stats Elevation 480 ft / 146 m (AMSL)
Location 39.916995° -76.873026°
Runways 1
Magnetic Variation 11.148° W
Sunrise 2018-05-26 09:45:31 UTC / 2018-05-26 05:45:31 Local
Sunset 2018-05-27 00:26:28 UTC / 2018-05-26 20:26:28 Local
Advertisement - Login to hide

Runways

ID Width Length Bearing (true) Bearing (mag) Surface Threshold Offset Overrun Length
17 100 ft / 30 m 5,194 ft / 1,583 m 155.44° 166.59° Asphalt 800 ft / 244 m 0 ft / 0 m
35 100 ft / 30 m 5,194 ft / 1,583 m 335.44° 346.59° Asphalt 740 ft / 226 m 0 ft / 0 m

Map

Weather


0- 5 10 15 20 25 30 35+ Temperature / ° C

Clouds and Precipitation
Forecast for 2018-05-27 00:00 UTC. Updated 5 hours ago

Ground ~20,000 ft ~40,000 ft Winds

METAR

KTHV 270353Z AUTO 00000KT 10SM BKN110 23/22 A2989 RMK AO2 SLP118 T02330217

TAF

Not found

Frequencies

Recorded 119.27 MHz ASOS
Clearance 121.65 MHz CLNC DEL
Unicom 123.00 MHz CTAF/UNICOM
Approach 124.10 MHz HARRISBURG APP/DEP
Warning: Do not use this data for real-world aviation or navigation. No guarantee of current accuracy is given.